Orbital Elements
Epoch 2018 Oct. 9.0 TT = JDT 2458400.5
T 2018 Oct. 15.14643 TT MPCW
q 1.9571544 (2000.0) P Q
n 0.10712725 Peri. 13.27889 +0.49363911 -0.85965923
a 4.3907233 Node 47.32047 +0.78066246 +0.37135577
e 0.5542524 Incl. 10.30842 +0.38325782 +0.35082887
P 9.20
From 370 observations 2010 Jan. 6-2019 Apr. 1, mean residual 0".6.
|